Time,TemperatureF,DewpointF,PressureIn,WindDirection,WindDirectionDegrees,WindSpeedMPH,WindSpeedGustMPH,Humidity,HourlyPrecipIn,Conditions,Clouds,dailyrainin,SolarRadiationWatts/m^2,SoftwareType,DateUTC
2013-06-26 00:22:00,61.0,50.0,-100.00,SW,232,0.0,0.0,66,0.00,,,0.00,6.000000,,2013-06-26 08:22:00,
2013-06-26 00:33:00,61.0,50.0,-100.00,SW,232,0.0,0.0,66,0.00,,,0.00,6.000000,,2013-06-26 08:33:00,
2013-06-26 00:42:00,61.0,50.0,-100.00,SW,232,0.0,0.0,66,0.00,,,0.00,6.000000,,2013-06-26 08:42:00,
2013-06-26 00:52:00,61.0,50.0,-100.00,SW,232,0.0,0.0,66,0.00,,,0.00,6.000000,,2013-06-26 08:52:00,
2013-06-26 01:11:00,58.0,50.0,-100.00,SW,232,0.0,0.0,76,0.00,,,0.00,0.000000,,2013-06-26 09:11:00,
2013-06-26 01:22:00,58.0,50.0,-100.00,SW,232,0.0,0.0,76,0.00,,,0.00,0.000000,,2013-06-26 09:22:00,
2013-06-26 01:32:00,58.0,50.0,-100.00,SW,232,0.0,0.0,76,0.00,,,0.00,0.000000,,2013-06-26 09:32:00,
2013-06-26 01:43:00,58.0,50.0,-100.00,SW,232,0.0,0.0,76,0.00,,,0.00,0.000000,,2013-06-26 09:43:00,
2013-06-26 01:53:00,58.0,50.0,-100.00,SW,232,0.0,0.0,76,0.00,,,0.00,0.000000,,2013-06-26 09:53:00,
2013-06-26 02:12:00,56.0,50.0,-100.00,NNW,348,0.0,1.0,80,0.00,,,0.00,0.000000,,2013-06-26 10:12:00,
2013-06-26 02:22:00,56.0,50.0,-100.00,NNW,348,0.0,1.0,80,0.00,,,0.00,0.000000,,2013-06-26 10:22:00,
2013-06-26 02:34:00,56.0,50.0,-100.00,NNW,348,0.0,1.0,80,0.00,,,0.00,0.000000,,2013-06-26 10:34:00,
2013-06-26 02:43:00,56.0,50.0,-100.00,NNW,348,0.0,1.0,80,0.00,,,0.00,0.000000,,2013-06-26 10:43:00,
2013-06-26 02:53:00,56.0,50.0,-100.00,NNW,348,0.0,1.0,80,0.00,,,0.00,0.000000,,2013-06-26 10:53:00,
2013-06-26 03:11:00,52.0,48.0,-100.00,WSW,251,0.0,0.0,87,0.00,,,0.00,0.000000,,2013-06-26 11:11:00,
2013-06-26 03:22:00,52.0,48.0,-100.00,WSW,251,0.0,0.0,87,0.00,,,0.00,0.000000,,2013-06-26 11:22:00,
2013-06-26 03:32:00,52.0,48.0,-100.00,WSW,251,0.0,0.0,87,0.00,,,0.00,0.000000,,2013-06-26 11:32:00,
2013-06-26 03:44:00,52.0,48.0,-100.00,WSW,251,0.0,0.0,87,0.00,,,0.00,0.000000,,2013-06-26 11:44:00,
2013-06-26 03:52:00,52.0,48.0,-100.00,WSW,251,0.0,0.0,87,0.00,,,0.00,0.000000,,2013-06-26 11:52:00,
2013-06-26 04:12:00,51.0,48.0,-100.00,North,3,0.0,0.0,89,0.00,,,0.00,0.000000,,2013-06-26 12:12:00,
2013-06-26 04:22:00,51.0,48.0,-100.00,North,3,0.0,0.0,89,0.00,,,0.00,0.000000,,2013-06-26 12:22:00,
2013-06-26 04:33:00,51.0,48.0,-100.00,North,3,0.0,0.0,89,0.00,,,0.00,0.000000,,2013-06-26 12:33:00,
2013-06-26 04:42:00,51.0,48.0,-100.00,North,3,0.0,0.0,89,0.00,,,0.00,0.000000,,2013-06-26 12:42:00,
2013-06-26 04:52:00,51.0,48.0,-100.00,North,3,0.0,0.0,89,0.00,,,0.00,0.000000,,2013-06-26 12:52:00,
2013-06-26 05:22:00,51.0,49.0,-100.00,North,3,0.0,0.0,92,0.00,,,0.00,1.000000,,2013-06-26 13:22:00,
2013-06-26 05:34:00,51.0,49.0,-100.00,North,3,0.0,0.0,92,0.00,,,0.00,1.000000,,2013-06-26 13:34:00,
2013-06-26 05:42:00,51.0,49.0,-100.00,North,3,0.0,0.0,92,0.00,,,0.00,1.000000,,2013-06-26 13:42:00,
2013-06-26 05:53:00,51.0,49.0,-100.00,North,3,0.0,0.0,92,0.00,,,0.00,1.000000,,2013-06-26 13:53:00,
2013-06-26 06:23:00,50.0,49.0,-100.00,SSW,210,0.0,1.0,96,0.00,,,0.00,13.000000,,2013-06-26 14:23:00,
2013-06-26 06:34:00,50.0,49.0,-100.00,SSW,210,0.0,1.0,96,0.00,,,0.00,13.000000,,2013-06-26 14:34:00,
2013-06-26 06:42:00,50.0,49.0,-100.00,SSW,210,0.0,1.0,96,0.00,,,0.00,13.000000,,2013-06-26 14:42:00,
2013-06-26 06:52:00,50.0,49.0,-100.00,SSW,210,0.0,1.0,96,0.00,,,0.00,13.000000,,2013-06-26 14:52:00,
2013-06-26 07:11:00,52.0,50.0,-100.00,SSW,210,0.0,0.0,93,0.00,,,0.00,36.000000,,2013-06-26 15:11:00,
2013-06-26 07:22:00,52.0,50.0,-100.00,SSW,210,0.0,0.0,93,0.00,,,0.00,36.000000,,2013-06-26 15:22:00,
2013-06-26 07:34:00,52.0,50.0,-100.00,SSW,210,0.0,0.0,93,0.00,,,0.00,36.000000,,2013-06-26 15:34:00,
2013-06-26 07:43:00,52.0,50.0,-100.00,SSW,210,0.0,0.0,93,0.00,,,0.00,36.000000,,2013-06-26 15:43:00,
2013-06-26 07:53:00,52.0,50.0,-100.00,SSW,210,0.0,0.0,93,0.00,,,0.00,36.000000,,2013-06-26 15:53:00,
2013-06-26 08:11:00,56.0,52.0,-100.00,SW,218,0.0,1.0,86,0.00,,,0.00,45.000000,,2013-06-26 16:11:00,
2013-06-26 08:22:00,56.0,52.0,-100.00,SW,218,0.0,1.0,86,0.00,,,0.00,45.000000,,2013-06-26 16:22:00,
2013-06-26 08:34:00,56.0,52.0,-100.00,SW,218,0.0,1.0,86,0.00,,,0.00,45.000000,,2013-06-26 16:34:00,
2013-06-26 08:43:00,56.0,52.0,-100.00,SW,218,0.0,1.0,86,0.00,,,0.00,45.000000,,2013-06-26 16:43:00,
2013-06-26 08:52:00,56.0,52.0,-100.00,SW,218,0.0,1.0,86,0.00,,,0.00,45.000000,,2013-06-26 16:52:00,
2013-06-26 09:23:00,63.0,55.0,-100.00,SSE,152,0.0,2.0,76,0.00,,,0.00,57.000000,,2013-06-26 17:23:00,
2013-06-26 09:33:00,63.0,55.0,-100.00,SSE,152,0.0,2.0,76,0.00,,,0.00,57.000000,,2013-06-26 17:33:00,
2013-06-26 09:43:00,63.0,55.0,-100.00,SSE,152,0.0,2.0,76,0.00,,,0.00,57.000000,,2013-06-26 17:43:00,
2013-06-26 09:52:00,63.0,55.0,-100.00,SSE,152,0.0,2.0,76,0.00,,,0.00,57.000000,,2013-06-26 17:52:00,
2013-06-26 10:22:00,66.0,51.0,-100.00,SE,125,1.0,3.0,59,0.00,,,0.00,131.000000,,2013-06-26 18:22:00,
2013-06-26 10:34:00,66.0,51.0,-100.00,SE,125,1.0,3.0,59,0.00,,,0.00,131.000000,,2013-06-26 18:34:00,
2013-06-26 10:43:00,66.0,51.0,-100.00,SE,125,1.0,3.0,59,0.00,,,0.00,131.000000,,2013-06-26 18:43:00,
2013-06-26 10:52:00,66.0,51.0,-100.00,SE,125,1.0,3.0,59,0.00,,,0.00,131.000000,,2013-06-26 18:52:00,
2013-06-26 11:11:00,76.0,55.0,-100.00,SSE,168,0.0,4.0,49,0.00,,,0.00,549.000000,,2013-06-26 19:11:00,
2013-06-26 11:22:00,76.0,55.0,-100.00,SSE,168,0.0,4.0,49,0.00,,,0.00,549.000000,,2013-06-26 19:22:00,
2013-06-26 11:32:00,76.0,55.0,-100.00,SSE,168,0.0,4.0,49,0.00,,,0.00,549.000000,,2013-06-26 19:32:00,
2013-06-26 11:42:00,76.0,55.0,-100.00,SSE,168,0.0,4.0,49,0.00,,,0.00,549.000000,,2013-06-26 19:42:00,
2013-06-26 11:52:00,76.0,55.0,-100.00,SSE,168,0.0,4.0,49,0.00,,,0.00,549.000000,,2013-06-26 19:52:00,
2013-06-26 12:22:00,80.0,55.0,-100.00,South,186,1.0,5.0,42,0.00,,,0.00,708.000000,,2013-06-26 20:22:00,
2013-06-26 12:33:00,80.0,55.0,-100.00,South,186,1.0,5.0,42,0.00,,,0.00,708.000000,,2013-06-26 20:33:00,
2013-06-26 12:43:00,80.0,55.0,-100.00,South,186,1.0,5.0,42,0.00,,,0.00,708.000000,,2013-06-26 20:43:00,
2013-06-26 12:52:00,80.0,55.0,-100.00,South,186,1.0,5.0,42,0.00,,,0.00,708.000000,,2013-06-26 20:52:00,
2013-06-26 13:23:00,84.0,53.0,-100.00,ESE,116,1.0,6.0,34,0.00,,,0.00,821.000000,,2013-06-26 21:23:00,
2013-06-26 13:52:00,84.0,53.0,-100.00,ESE,116,1.0,6.0,34,0.00,,,0.00,821.000000,,2013-06-26 21:52:00,
2013-06-26 14:21:00,78.0,53.0,-100.00,ENE,57,2.0,10.0,42,-99.99,,,0.00,621.000000,,2013-06-26 22:21:00,
2013-06-26 14:33:00,78.0,53.0,-100.00,ENE,57,2.0,10.0,42,-99.99,,,0.00,621.000000,,2013-06-26 22:33:00,
2013-06-26 14:43:00,78.0,53.0,-100.00,ENE,57,2.0,10.0,42,-99.99,,,0.00,621.000000,,2013-06-26 22:43:00,
2013-06-26 14:52:00,78.0,53.0,-100.00,ENE,57,2.0,10.0,42,-99.99,,,0.00,621.000000,,2013-06-26 22:52:00,
2013-06-26 15:11:00,81.0,49.0,-100.00,ENE,63,3.0,14.0,33,0.00,,,0.00,737.000000,,2013-06-26 23:11:00,
2013-06-26 15:22:00,81.0,49.0,-100.00,ENE,63,3.0,14.0,33,0.00,,,0.00,737.000000,,2013-06-26 23:22:00,
2013-06-26 15:34:00,81.0,49.0,-100.00,ENE,63,3.0,14.0,33,0.00,,,0.00,737.000000,,2013-06-26 23:34:00,
2013-06-26 15:43:00,81.0,49.0,-100.00,ENE,63,3.0,14.0,33,0.00,,,0.00,737.000000,,2013-06-26 23:43:00,
2013-06-26 15:52:00,81.0,49.0,-100.00,ENE,63,3.0,14.0,33,0.00,,,0.00,737.000000,,2013-06-26 23:52:00,
2013-06-26 16:22:00,71.0,46.0,-100.00,ENE,66,3.0,12.0,41,0.00,,,0.00,255.000000,,2013-06-27 00:22:00,
2013-06-26 16:33:00,71.0,46.0,-100.00,ENE,66,3.0,12.0,41,0.00,,,0.00,255.000000,,2013-06-27 00:33:00,
2013-06-26 16:42:00,71.0,46.0,-100.00,ENE,66,3.0,12.0,41,0.00,,,0.00,255.000000,,2013-06-27 00:42:00,
2013-06-26 16:53:00,71.0,46.0,-100.00,ENE,66,3.0,12.0,41,0.00,,,0.00,255.000000,,2013-06-27 00:53:00,
2013-06-26 18:11:00,68.0,53.0,-100.00,North,354,0.0,6.0,59,-99.99,,,0.00,116.000000,,2013-06-27 02:11:00,
2013-06-26 18:22:00,68.0,53.0,-100.00,North,354,0.0,6.0,59,-99.99,,,0.00,116.000000,,2013-06-27 02:22:00,
2013-06-26 18:32:00,68.0,53.0,-100.00,North,354,0.0,6.0,59,-99.99,,,0.00,116.000000,,2013-06-27 02:32:00,
2013-06-26 18:42:00,68.0,53.0,-100.00,North,354,0.0,6.0,59,-99.99,,,0.00,116.000000,,2013-06-27 02:42:00,
2013-06-26 18:52:00,68.0,53.0,-100.00,North,354,0.0,6.0,59,-99.99,,,0.00,116.000000,,2013-06-27 02:52:00,
2013-06-26 19:11:00,73.0,52.0,-100.00,South,175,1.0,7.0,48,0.00,,,0.00,312.000000,,2013-06-27 03:11:00,
2013-06-26 19:21:00,73.0,52.0,-100.00,South,175,1.0,7.0,48,0.00,,,0.00,312.000000,,2013-06-27 03:21:00,
2013-06-26 19:32:00,73.0,52.0,-100.00,South,175,1.0,7.0,48,0.00,,,0.00,312.000000,,2013-06-27 03:32:00,
2013-06-26 19:42:00,73.0,52.0,-100.00,South,175,1.0,7.0,48,0.00,,,0.00,312.000000,,2013-06-27 03:42:00,
2013-06-26 19:52:00,73.0,52.0,-100.00,South,175,1.0,7.0,48,0.00,,,0.00,312.000000,,2013-06-27 03:52:00,
2013-06-26 20:11:00,75.0,53.0,-100.00,SE,128,1.0,7.0,47,0.00,,,0.00,347.000000,,2013-06-27 04:11:00,
2013-06-26 20:22:00,75.0,53.0,-100.00,SE,128,1.0,7.0,47,0.00,,,0.00,347.000000,,2013-06-27 04:22:00,
2013-06-26 20:32:00,75.0,53.0,-100.00,SE,128,1.0,7.0,47,0.00,,,0.00,347.000000,,2013-06-27 04:32:00,
2013-06-26 20:42:00,75.0,53.0,-100.00,SE,128,1.0,7.0,47,0.00,,,0.00,347.000000,,2013-06-27 04:42:00,
2013-06-26 20:52:00,75.0,53.0,-100.00,SE,128,1.0,7.0,47,0.00,,,0.00,347.000000,,2013-06-27 04:52:00,
2013-06-26 21:12:00,71.0,51.0,-100.00,NNE,18,1.0,7.0,50,0.00,,,0.00,234.000000,,2013-06-27 05:12:00,
2013-06-26 21:21:00,71.0,51.0,-100.00,NNE,18,1.0,7.0,50,0.00,,,0.00,234.000000,,2013-06-27 05:21:00,
2013-06-26 21:32:00,71.0,51.0,-100.00,NNE,18,1.0,7.0,50,0.00,,,0.00,234.000000,,2013-06-27 05:32:00,
2013-06-26 21:42:00,71.0,51.0,-100.00,NNE,18,1.0,7.0,50,0.00,,,0.00,234.000000,,2013-06-27 05:42:00,
2013-06-26 21:53:00,71.0,51.0,-100.00,NNE,18,1.0,7.0,50,0.00,,,0.00,234.000000,,2013-06-27 05:53:00,
2013-06-26 22:12:00,69.0,52.0,-100.00,NE,55,1.0,4.0,54,0.00,,,0.00,78.000000,,2013-06-27 06:12:00,
2013-06-26 22:22:00,69.0,52.0,-100.00,NE,55,1.0,4.0,54,0.00,,,0.00,78.000000,,2013-06-27 06:22:00,
2013-06-26 22:34:00,69.0,52.0,-100.00,NE,55,1.0,4.0,54,0.00,,,0.00,78.000000,,2013-06-27 06:34:00,
2013-06-26 22:43:00,69.0,52.0,-100.00,NE,55,1.0,4.0,54,0.00,,,0.00,78.000000,,2013-06-27 06:43:00,
2013-06-26 22:53:00,69.0,52.0,-100.00,NE,55,1.0,4.0,54,0.00,,,0.00,78.000000,,2013-06-27 06:53:00,
2013-06-26 23:12:00,65.0,50.0,-100.00,NNW,335,0.0,4.0,58,0.00,,,0.00,27.000000,,2013-06-27 07:12:00,
2013-06-26 23:22:00,65.0,50.0,-100.00,NNW,335,0.0,4.0,58,0.00,,,0.00,27.000000,,2013-06-27 07:22:00,
2013-06-26 23:33:00,65.0,50.0,-100.00,NNW,335,0.0,4.0,58,0.00,,,0.00,27.000000,,2013-06-27 07:33:00,
2013-06-26 23:42:00,65.0,50.0,-100.00,NNW,335,0.0,4.0,58,0.00,,,0.00,27.000000,,2013-06-27 07:42:00,
2013-06-26 23:52:00,65.0,50.0,-100.00,NNW,335,0.0,4.0,58,0.00,,,0.00,27.000000,,2013-06-27 07:52:00,